FW3241 Weather Reports


Display with metric or nautical units.
time (UTC)temp
F
wind
direction
speed
MPH
gust
MPH
rain 1hr
in
rain 24hr
in
rain mn
in
humidity
%
barometer
mb
20260506121552 58 170 1.0 5.0 0.00 0.00 0.00 67 1013.2
20260506120046 58 198 1.0 3.0 0.00 0.00 0.00 66 1013.5
20260506114545 58 231 1.0 4.0 0.00 0.00 0.00 66 1013.2
20260506113045 58 178 1.0 5.0 0.00 0.00 0.00 66 1013.2
20260506111544 58 93 1.0 6.0 0.00 0.00 0.00 66 1013.2
20260506110044 58 238 3.0 12.0 0.00 0.00 0.00 65 1013.3
20260506104543 58 223 1.0 7.0 0.00 0.00 0.00 65 1012.9
20260506103049 58 171 1.0 9.0 0.00 0.00 0.00 65 1012.6
20260506101538 58 186 1.0 11.0 0.00 0.00 0.00 65 1012.2
20260506100036 58 192 3.0 10.0 0.00 0.00 0.00 65 1012.0
20260506094536 57 193 1.0 5.0 0.00 0.00 0.00 65 1011.9
20260506093035 57 232 2.0 9.0 0.00 0.00 0.00 64 1011.8
20260506091535 57 227 0.0 8.0 0.00 0.00 0.00 64 1011.9
20260506090044 57 119 2.0 11.0 0.00 0.00 0.00 63 1012.0
20260506084531 57 130 1.0 8.0 0.00 0.00 0.00 62 1012.3
20260506083030 57 236 3.0 9.0 0.00 0.00 0.00 61 1012.3
20260506081534 57 179 0.0 3.0 0.00 0.00 0.00 60 1012.3
20260506073025 57 215 1.0 5.0 0.00 0.00 0.00 55 1012.8
20260506071523 57 182 1.0 8.0 0.00 0.00 0.00 53 1013.2
20260506070121 57 200 2.0 9.0 0.00 0.00 0.00 51 1013.3
20260506061540 57 180 1.0 10.0 0.00 0.00 0.00 49 1013.9
20260506044519 58 247 2.0 9.0 0.00 0.00 0.00 49 1013.7
20260506043019 58 165 3.0 9.0 0.00 0.00 0.00 50 1014.4
20260506041508 58 135 1.0 6.0 0.00 0.00 0.00 51 1014.2
20260506040005 58 154 3.0 9.0 0.00 0.00 0.00 51 1014.1
20260506034505 58 184 2.0 4.0 0.00 0.00 0.00 51 1013.9
20260506033005 58 156 2.0 12.0 0.00 0.00 0.00 51 1014.0
20260506031504 57 196 2.0 5.0 0.00 0.00 0.00 50 1014.1
20260506024503 58 192 3.0 10.0 0.00 0.00 0.00 50 1014.0
20260506023103 57 144 1.0 7.0 0.00 0.00 0.00 48 1014.3
20260506021606 57 195 1.0 5.0 0.00 0.00 0.00 47 1014.2
20260506020059 58 184 0.0 8.0 0.00 0.00 0.00 46 1013.9
20260506014559 58 149 1.0 4.0 0.00 0.00 0.00 45 1013.9
20260506013106 58 229 1.0 13.0 0.00 0.00 0.00 44 1014.0
20260506011606 58 188 0.0 6.0 0.00 0.00 0.00 44 1014.1
20260506010057 58 182 1.0 3.0 0.00 0.00 0.00 44 1014.1
20260506004556 59 196 1.0 9.0 0.00 0.00 0.00 44 1013.9
20260506003056 59 219 1.0 4.0 0.00 0.00 0.00 42 1013.9
20260506001555 59 202 3.0 6.0 0.00 0.00 0.00 42 1013.7
20260506000055 60 200 0.0 4.0 0.00 0.00 0.00 43 1013.9
20260505234606 60 160 1.0 3.0 0.00 0.00 0.00 42 1013.8
20260505233054 61 161 1.0 4.0 0.00 0.00 0.00 40 1013.7
20260505231605 62 154 2.0 8.0 0.00 0.00 0.00 40 1013.9
20260505230054 63 177 2.0 8.0 0.00 0.00 0.00 39 1013.9
20260505224552 62 226 2.0 6.0 0.00 0.00 0.00 38 1013.7
20260505223102 63 169 2.0 9.0 0.00 0.00 0.00 39 1014.1
20260505221557 63 179 2.0 5.0 0.00 0.00 0.00 38 1013.8
20260505220052 63 180 3.0 9.0 0.00 0.00 0.00 36 1013.9
20260505214611 64 173 2.0 13.0 0.00 0.00 0.00 35 1013.8
20260505213051 65 170 2.0 6.0 0.00 0.00 0.00 33 1013.8
20260505211547 66 189 2.0 9.0 0.00 0.00 0.00 31 1013.6
20260505210047 66 188 1.0 3.0 0.00 0.00 0.00 30 1013.8
20260505204546 65 176 1.0 7.0 0.00 0.00 0.00 33 1014.1
20260505203043 63 172 1.0 13.0 0.00 0.00 0.00 33 1014.2
20260505201541 63 164 1.0 10.0 0.00 0.00 0.00 34 1014.3
20260505200052 62 187 2.0 5.0 0.00 0.00 0.00 31 1014.4
20260505194541 63 250 1.0 4.0 0.00 0.00 0.00 33 1014.5
20260505193039 63 190 2.0 7.0 0.00 0.00 0.00 33 1015.0
20260505191544 63 211 1.0 7.0 0.00 0.00 0.00 33 1014.9
20260505190040 65 173 2.0 3.0 0.00 0.00 0.00 31 1015.0
20260505184537 65 191 1.0 9.0 0.00 0.00 0.00 33 1015.2
20260505183050 65 176 1.0 7.0 0.00 0.00 0.00 34 1015.3
20260505181535 65 167 2.0 10.0 0.00 0.00 0.00 32 1015.1
20260505180041 65 165 1.0 2.0 0.00 0.00 0.00 32 1015.1
20260505174539 66 207 1.0 5.0 0.00 0.00 0.00 32 1015.6
20260505173032 66 183 1.0 6.0 0.00 0.00 0.00 34 1015.9
20260505171528 65 195 1.0 9.0 0.00 0.00 0.00 34 1016.2
20260505170028 64 233 2.0 5.0 0.00 0.00 0.00 35 1016.1
20260505164523 63 196 1.0 4.0 0.00 0.00 0.00 35 1016.0
20260505163020 62 207 1.0 6.0 0.00 0.00 0.00 37 1016.1
20260505161519 61 191 1.0 4.0 0.00 0.00 0.00 37 1016.2
20260505153015 60 214 1.0 5.0 0.00 0.00 0.00 37 1016.3
20260505151512 60 215 0.0 4.0 0.00 0.00 0.00 38 1016.7
20260505140113 56 195 0.0 3.0 0.00 0.00 0.00 43 1016.5
20260505124551 52 230 3.0 8.0 0.00 0.00 0.00 49 1016.3
20260505123053 52 225 0.0 5.0 0.00 0.00 0.00 50 1016.1